Terug naar catalogus

THORAD DELTA 1 DEB

ActiefSSO
NORAD 8172·DEBRIS·🇺🇸 United States

Gelanceerd Nov 15, 1974 vanaf Vandenberg Space Force Base

Loading…

Volgende Passages (komende 24 uur)

TLE

VersSource: Space-Track

Epoch: Sep 14, 2026, 22:11 UTC

1 08172U 74089AN  26257.92480594 -.00000050  00000-0 -18158-4 0  9993
2 08172 101.9773 277.2196 0052764 279.4079 198.1483 12.54932662374079

Volg THORAD DELTA 1 DEB in realtime met AllMySat

Download on the App Store